Location: Gradaro
(45.0833°N, 10.8833°E)
Time: 10:23:33
(UTC+00:00)

FENGYUN 1C DEB - Pass Details

Date: 25 June 2021
Orbit: 803 x 830 km, 98.8° (Epoch: 28 July)

Event Time Altitude Azimuth Distance (km) Brightness Sun altitude
Exits shadow 21:17:17 26° 151° (SSE) 1,545 ? -16.1°
Maximum altitude 21:20:18 71° 72° (ENE) 858 ? -16.4°
Drops below altitude 10° 21:25:37 10° 350° (N) 2,417 ? -16.8°
Sets 21:27:59 0° 348° (NNW) 3,358 ? -17.0°
